Regional Weather Roundup
Issued by NWS Sterling, VA

Home | Current Version | Previous Version | Text Only | Print | Product List | Glossary Off
Versions: 1 2 3 4 5 6 7 8 9 10 11 12 13 14 15 16 17 18 19 20 21 22 23 24 25 26 27 28 29 30 31 32 33 34 35 36 37 38 39 40 41 42 43 44 45 46 47 48 49 50

467
ASUS41 KLWX 050110
RWRLWX

REGIONAL WEATHER ROUNDUP
NATIONAL WEATHER SERVICE BALTIMORE MD/WASHINGTON DC
900 PM EDT WED MAY 04 2016

Note: "FAIR" indicates few or no clouds below 12,000 feet
with no significant weather and/or obstructions to visibility.
 TC=TEMPERATURE CELSIUS

 * =Non NWS site. Station does not report precipitation (e.g. rain,
    snow, etc.), thunder, or fog.

DCZ001-MDZ009-015-VAZ040>042-051-053>054-050200-
WASHINGTON METRO

CITY           SKY/WX    TMP DP  RH WIND       PRES   REMARKS
WASHINGTON NAT CLOUDY    56  52  86 NE16      29.69R
DULLES         LGT RAIN  55  51  86 E12       29.68R
ANDREWS AFB    CLOUDY    54  52  94 E8        29.68S
FT BELVOIR     MOCLDY    55  52  88 VRB2      29.68R
QUANTICO       CLOUDY    57  53  86 E10       29.68S
COLLEGE PARK*  CLOUDY    52  50  93 NE5       29.70R
LEESBURG*      DRIZZLE   55  55 100 E7        29.70R
MANASSAS*      CLOUDY    57  55  94 E6        29.68R
GAITHERSBURG*  CLOUDY    52  48  87 E6        29.73S

$$

MDZ006>007-011-014-050200-
BALTIMORE METRO

CITY           SKY/WX    TMP DP  RH WIND       PRES   REMARKS
BWI AIRPORT    DRIZZLE   53  50  89 E9        29.70S
MD SCIENCE CTR   N/A     53  49  86 MISG      29.71S
MARTIN STATE   CLOUDY    54  52  94 NE7       29.73R
ANNAPOLIS      CLOUDY    53  51  93 NE8       29.70S FOG
FORT MEADE*    CLOUDY    52  50  93 E5        29.72S

$$

MDZ012-015-019>023-050200-
MARYLAND EASTERN SHORE

CITY           SKY/WX    TMP DP  RH WIND       PRES   REMARKS
OCEAN CITY     CLOUDY    50  48  93 NE15G24   29.68S
SALISBURY      CLOUDY    51  50  96 NE10      29.68S
CAMBRIDGE*     CLOUDY    52  50  93 NE5       29.68F
EASTON*        CLOUDY   N/A N/A N/A NE7       29.74R HAZE

$$

MDZ017>025-050200-
SOUTHERN MARYLAND

CITY           SKY/WX    TMP DP  RH WIND       PRES   REMARKS
PATUXENT RIVER CLOUDY    55  52  89 NE10      29.66F
ST INIGOES     CLOUDY    56  53  90 VRB3      29.65F
LEONARDTOWN*   CLOUDY    54  52  94 N3        29.69F

$$

MDZ003>005-050200-
NORTH CENTRAL MARYLAND

CITY           SKY/WX    TMP DP  RH WIND       PRES   REMARKS
FREDERICK*     CLOUDY    54  54 100 E7        29.72R
HAGERSTOWN APT CLOUDY    55  50  83 E7        29.68R
WESTMINSTER*   DRIZZLE   52  30  43 E6        29.70R

$$

MDZ501>502-050200-
WESTERN MARYLAND

CITY           SKY/WX    TMP DP  RH WIND       PRES   REMARKS
OAKLAND*       CLOUDY    45  43  93 CALM      29.68R
CUMBERLAND*    CLOUDY    59  50  72 E5        29.70R

$$

VAZ025>031-050200-
SHENANDOAH VALLEY

CITY           SKY/WX    TMP DP  RH WIND       PRES   REMARKS
WINCHESTER*    CLOUDY    55  54  94 CALM      29.68R
FRONT ROYAL*   CLOUDY    54  54 100 CALM      29.66R
LURAY*         LGT RAIN  55  55 100 NW7       29.66R
NEW MARKET*    CLOUDY    53  49  87 N7        29.64F
STAUNTON*      CLOUDY    57  51  79 NW6       29.68R
WAYNESBORO*    CLOUDY    57  48  72 CALM      29.66R

$$

WVZ021-048>050-054>055-050200-
EASTERN WEST VIRGINIA PANHANDLE

CITY           SKY/WX    TMP DP  RH WIND       PRES   REMARKS
MARTINSBURG    CLOUDY    55  54  96 NE5       29.67R
PETERSBURG*    CLOUDY    58  52  81 CALM      29.66R

$$

VAZ036>039-050-050200-
CENTRAL FOOTHILLS

CITY           SKY/WX    TMP DP  RH WIND       PRES   REMARKS
CHARLOTTESVILL CLOUDY    59  52  77 N6        29.65R
CULPEPER*      CLOUDY    58  56  94 E5        29.67S
ORANGE*        FAIR      55  55 100 CALM      29.66F
GORDONSVILLE*  CLOUDY    56  55  96 NE3       29.64S
WARRENTON*     CLOUDY    57  51  80 E8        29.67S

$$

VAZ055>057-050200-
NORTH AND CENTRAL PIEDMONT

CITY           SKY/WX    TMP DP  RH WIND       PRES   REMARKS
FREDERICKSBRG* CLOUDY    57  57 100 E5        29.65F
STAFFORD*      CLOUDY    55  53  91 NE6       29.71S

$$

NCZ024-NYZ072-PAZ021-071-VAZ022-071-050200-
OTHER REGIONAL OBSERVATIONS

CITY           SKY/WX    TMP DP  RH WIND       PRES   REMARKS
NEW YORK CITY  CLOUDY    50  44  80 NE12G18   29.77R
PHILADELPHIA   CLOUDY    51  46  83 VRB7      29.75R
PITTSBURGH     LGT RAIN  53  44  71 W12       29.67R
ROANOKE        FAIR      59  42  53 NW6       29.65R
RICHMOND       CLOUDY    58  56  93 E8        29.63S
RALEIGH        PTCLDY    61  49  64 CALM      29.62R

$$

ANZ530>537-050200-
MARINE OBSERVATIONS

STATION/POSITION TIME  TEMP    WIND        PRES
                       AIR SEA DIR/SP/G
                 (UTC) (F)     (DEG/KT/KT) (MB)
THOMAS PT LIGHT  0100   53 59   50/ 12/ 13 1006.9R
BALT KEY BRIDGE  0006   53                 1005.7R
COVE POINT       0000   54                 1005.4R
LEWISETTA        0000   57 63              1004.3R
SOLOMONS ISLAND  0000   55 61                N/A
PINEY POINT      0030           50/  8/  9   N/A

$$





USA.gov is the U.S. government's official web portal to all federal, state and local government web resources and services.